Regional Weather Roundup
Issued by NWS

Home | Current Version | Previous Version | Text Only | Print | Product List | Glossary On
Versions: 1 2 3 4 5 6 7 8 9 10 11 12 13 14 15 16 17 18 19 20 21 22 23 24 25 26 27 28 29 30 31 32 33 34 35 36 37 38 39 40 41 42 43 44 45 46 47 48 49 50
000
ASUS43 KBIS 261420
RWRND

NORTH DAKOTA REGIONAL WEATHER ROUNDUP
NATIONAL WEATHER SERVICE BISMARCK ND
900 AM CDT TUE MAY 26 2015

NOTE: "FAIR" INDICATES FEW OR NO CLOUDS BELOW 12,000 FEET WITH NO
SIGNIFICANT WEATHER AND/OR OBSTRUCTIONS TO VISIBILITY.


NDZ001>003-009>011-017-261500-
NORTHWEST NORTH DAKOTA

CITY           SKY/WX    TMP DP  RH WIND       PRES   REMARKS
WILLISTON      SUNNY     58  49  72 S3        29.94S
MINOT          SUNNY     67  49  52 W12       29.89R
MINOT AFB      MOSUNNY   65  53  65 W14       29.87S
$$

NDZ018>021-031>035-040>046-261500-
SOUTHWEST NORTH DAKOTA

CITY           SKY/WX    TMP DP  RH WIND       PRES   REMARKS
BISMARCK       SUNNY     61  50  67 W10       29.94S
DICKINSON      SUNNY     56  52  86 W7        29.95S
GARRISON         N/A     64  50  60 W9        29.92S
HETTINGER ARPT MOSUNNY   55  52  89 CALM      29.98R
$$

NDZ004>008-012>016-024-026-027-054-261500-
NORTHEAST NORTH DAKOTA

CITY           SKY/WX    TMP DP  RH WIND       PRES   REMARKS
GRAND FORKS    MOSUNNY   64  55  72 SW7       29.80F
GRND FRKS AFB  SUNNY     66  54  65 SW7       29.81S
DEVILS LAKE    MOSUNNY   66  50  55 NW14      29.83S
$$

NDZ022-023-025-028>030-036>039-047>053-261500-
SOUTHEAST NORTH DAKOTA

CITY           SKY/WX    TMP DP  RH WIND       PRES   REMARKS
FARGO          MOSUNNY   61  53  75 S6        29.85S
JAMESTOWN      SUNNY     63  53  70 W9        29.85F
$$




USA.gov is the U.S. government's official web portal to all federal, state and local government web resources and services.